Flag Weather past 2 weeks in Gütersloh, North Rhine-Westphalia, Germany

Now
48 °F

Passing clouds.


Feels Like: 48 °F
Forecast: 36 / 49 °F
Wind: 2 mph from Southeast

Location: Bad Lippspringe

Current Time: Nov 23, 2014 at 6:09:07 AM

Latest Report: Nov 23, 2014 at 5:00 AM


Visibility: N/A

Pressure: 30.12 "Hg

Humidity: 84%

Dew point: 44 °F

Location of GüterslohLocation

Historic Weather in Gütersloh — Graph

°F

Gütersloh temperature yesterday

Maximum temperature yesterday: 51 °F (at 3:00 PM)
Minimum temperature yesterday: 39 °F (at 5:00 AM)
Average temperature yesterday: 44 °F

Past Weeks' High & Low Weather Summary

 TemperatureHumidityPressure
High57 °F (Nov 12, 3:00 PM)99% (Nov 16, 7:00 AM)30.37 "Hg (Nov 16, 7:00 AM)
Low39 °F (Nov 21, 5:00 AM)57% (Nov 8, 2:00 PM)29.50 "Hg (Nov 16, 6:00 AM)
Average47 °F85%29.89 "Hg
* Reported Nov 8 5:00 AM — Nov 23 5:00 AM, Gütersloh, Weather by CustomWeather, © 2014

Note: Actual official high and low records may vary slightly from our data, if they occured in-between our weather recording intervals... More about our weather records

Advertising

Gütersloh weather history for previous 24 hours

 ConditionsComfort  
Time TempWeatherWind HumidityBarometerVisibility
5:00 AM
Nov 23
48 °FPassing clouds.2 mph84%30.12 "HgN/A
4:00 AM47 °FPassing clouds.2 mph85%30.12 "HgN/A
3:00 AM47 °FOvercast.3 mph85%30.14 "HgN/A
2:00 AM47 °FOvercast.3 mph84%30.13 "HgN/A
1:00 AM47 °FOvercast.2 mph84%30.13 "HgN/A
12:00 AM47 °FOvercast.1 mph84%30.12 "HgN/A
11:00 PM
Nov 22
45 °FClear.1 mph87%30.13 "HgN/A
10:00 PM45 °FClear.1 mph86%30.12 "HgN/A
9:00 PM45 °FClear.2 mph87%30.13 "HgN/A
8:00 PM46 °FClear.2 mph87%30.11 "HgN/A
7:00 PM44 °FClear.2 mph88%30.11 "HgN/A
6:00 PM44 °FClear.2 mph89%30.12 "HgN/A
5:00 PM45 °FClear.2 mph85%30.11 "HgN/A
4:00 PM48 °FSunny.2 mph75%30.11 "HgN/A
3:00 PM51 °FOvercast.1 mph67%30.09 "HgN/A
2:00 PM51 °FPartly sunny.1 mph68%30.11 "HgN/A
1:00 PM49 °FPassing clouds.2 mph68%30.11 "HgN/A
12:00 PM48 °FScattered clouds.2 mph67%30.12 "HgN/A
11:00 AM45 °FPassing clouds.2 mph73%30.13 "HgN/A
10:00 AM43 °FOvercast.2 mph78%30.14 "HgN/A
9:00 AM41 °FOvercast.5 mph79%30.13 "HgN/A
8:00 AM40 °FOvercast.2 mph80%30.13 "HgN/A
7:00 AM40 °FPassing clouds.2 mph81%30.14 "HgN/A
6:00 AM40 °FOvercast.2 mph80%30.14 "HgN/A
Weather by CustomWeather, © 2014

See weather overviewHow to use our weather pages